This is the latest recevied weather packets stored in our database for station/object KD8DLP-13. If no packets are shown the sender has not sent any weather packets the latest 10 day(s).
| Time | Temp. | Humidity | Pressure | Rain* | Wind** | Luminosity | Snow |
|---|---|---|---|---|---|---|---|
| 1777940415 | 22.22° C | 41% | 997.5 hPa | 0 mm | - | 15 W/m² | - |
| 1777940112 | 22.78° C | 41% | 997.3 hPa | 0 mm | - | 18 W/m² | - |
| 1777939809 | 22.78° C | 40% | 997 hPa | 0 mm | - | 20 W/m² | - |
| 1777939506 | 22.78° C | 40% | 997 hPa | 0 mm | - | 23 W/m² | - |
| 1777939204 | 22.78° C | 40% | 997.2 hPa | 0 mm | - | 25 W/m² | - |
| 1777938900 | 22.78° C | 40% | 997 hPa | 0 mm | - | 28 W/m² | - |
| 1777938596 | 22.78° C | 40% | 997.2 hPa | 0 mm | - | 31 W/m² | - |
| 1777938294 | 22.78° C | 41% | 997.3 hPa | 0 mm | - | 33 W/m² | - |
| 1777937990 | 23.33° C | 40% | 997.4 hPa | 0 mm | - | 36 W/m² | - |
| 1777937686 | 23.33° C | 40% | 997.7 hPa | 0 mm | - | 38 W/m² | - |
| 1777937383 | 23.33° C | 39% | 997.5 hPa | 0 mm | - | 39 W/m² | - |
| 1777937080 | 23.33° C | 39% | 997.8 hPa | 0 mm | - | 42 W/m² | - |
| 1777936778 | 23.33° C | 40% | 998 hPa | 0 mm | - | 46 W/m² | - |
| 1777936473 | 23.89° C | 39% | 997.7 hPa | 0 mm | - | 50 W/m² | - |
| 1777936170 | 23.89° C | 39% | 998 hPa | 0 mm | - | 59 W/m² | - |
| 1777935867 | 23.89° C | 39% | 998.2 hPa | 0 mm | - | 73 W/m² | - |
| 1777935566 | 23.89° C | 39% | 998.4 hPa | 0 mm | - | 91 W/m² | - |
| 1777935262 | 23.89° C | 39% | 998.4 hPa | 0 mm | - | 105 W/m² | - |
| 1777934960 | 23.33° C | 39% | 998.5 hPa | 0 mm | - | 102 W/m² | - |
| 1777934656 | 23.33° C | 39% | 998.7 hPa | 0 mm | - | 113 W/m² | - |
| 1777934353 | 23.33° C | 38% | 998.8 hPa | 0 mm | - | 146 W/m² | - |
| 1777934048 | 23.33° C | 38% | 998.9 hPa | 0 mm | - | 167 W/m² | - |
| 1777933745 | 23.89° C | 38% | 998.6 hPa | 0 mm | - | 139 W/m² | - |
| 1777933442 | 23.33° C | 38% | 998.9 hPa | 0 mm | - | 162 W/m² | - |
| 1777933140 | 23.89° C | 38% | 999.1 hPa | 0 mm | - | 167 W/m² | - |
* Rain latest hour (hover to see other rain measurements)
** Current wind speed in m/s (hover to see current wind gust speed)